,,,PA_Meas_PMT16A,,PR_Meas_QMR101_102,,RH_Meas_QMH101,,SR_Meas_QMS101,,TA_Meas_QMH101,,GenWind,,GenWind,
date,time,status,PA,status,PR,status,RH,status,SR,status,TA,status,DirAvg,status,SpdAvg,
2010-09-11, 00:00:04,VALID,1005.11,VALID,0,INVALID,123.664,VALID,0,VALID,24.8132,VALID,33,VALID,0.235547,
2010-09-11, 00:01:04,VALID,1005.12,VALID,0,INVALID,123.946,VALID,0,VALID,24.7937,VALID,33,VALID,0.176172,
2010-09-11, 00:02:04,VALID,1005.14,VALID,0,INVALID,124.007,VALID,0,VALID,24.7743,VALID,33,VALID,0.0183594,
2010-09-11, 00:03:04,VALID,1005.12,VALID,0,INVALID,124.137,VALID,0,VALID,24.7548,VALID,33,VALID,0.000390625,
2010-09-11, 00:04:04,VALID,1005.14,VALID,0,INVALID,124.191,VALID,0,VALID,24.7159,VALID,33,VALID,0.438672,
2010-09-11, 00:05:04,VALID,1005.13,VALID,0,INVALID,124.297,VALID,0,VALID,24.6769,VALID,33,VALID,0.118359,
2010-09-11, 00:06:04,VALID,1005.16,VALID,0,INVALID,124.389,VALID,0,VALID,24.6574,VALID,33,VALID,0.0871094,
2010-09-11, 00:07:04,VALID,1005.16,VALID,0,INVALID,124.519,VALID,0,VALID,24.5972,VALID,33,VALID,0.130859,
2010-09-11, 00:08:04,VALID,1005.17,VALID,0,INVALID,124.61,VALID,0,VALID,24.599,VALID,33,VALID,0.221875,
2010-09-11, 00:09:04,VALID,1005.16,VALID,0,INVALID,124.702,VALID,0,VALID,24.5601,VALID,33,VALID,0.264062,
2010-09-11, 00:10:04,VALID,1005.17,VALID,0,INVALID,124.793,VALID,0,VALID,24.5193,VALID,29,VALID,0.398438,
2010-09-11, 00:11:04,VALID,1005.15,VALID,0,INVALID,124.862,VALID,0,VALID,24.5425,VALID,22,VALID,0.344922,
2010-09-11, 00:12:04,VALID,1005.15,VALID,0,INVALID,124.9,VALID,0,VALID,24.5212,VALID,22,VALID,0.480078,
2010-09-11, 00:13:04,VALID,1005.13,VALID,0,INVALID,124.923,VALID,0,VALID,24.5212,VALID,22,VALID,0.463672,
2010-09-11, 00:14:04,VALID,1005.11,VALID,0,INVALID,124.976,VALID,0,VALID,24.5406,VALID,8,VALID,0.630078,
2010-09-11, 00:15:04,VALID,1005.06,VALID,0,INVALID,124.961,VALID,0,VALID,24.5193,VALID,22,VALID,0.658203,
2010-09-11, 00:16:04,VALID,1005.08,VALID,0,INVALID,124.976,VALID,0,VALID,24.5601,VALID,31,VALID,0.787109,
2010-09-11, 00:17:04,VALID,1005.01,VALID,0,INVALID,124.976,VALID,0,VALID,24.5601,VALID,31,VALID,0.382031,
2010-09-11, 00:18:04,VALID,1005.02,VALID,0,INVALID,124.984,VALID,0,VALID,24.5814,VALID,31,VALID,0.675391,
2010-09-11, 00:19:04,VALID,1005.01,VALID,0,INVALID,125.014,VALID,0,VALID,24.6204,VALID,31,VALID,0.319922,
2010-09-11, 00:20:04,VALID,1005.01,VALID,0,INVALID,124.999,VALID,0,VALID,24.5777,VALID,31,VALID,0.528516,
2010-09-11, 00:21:04,VALID,1005.02,VALID,0,INVALID,125.022,VALID,0,VALID,24.599,VALID,31,VALID,0.471484,
2010-09-11, 00:22:04,VALID,1005.05,VALID,0,INVALID,124.992,VALID,0,VALID,24.5972,VALID,31,VALID,0.363281,
2010-09-11, 00:23:04,VALID,1005.05,VALID,0,INVALID,124.946,VALID,0,VALID,24.6398,VALID,33,VALID,0.465234,
2010-09-11, 00:24:04,VALID,1005.09,VALID,0,INVALID,124.931,VALID,0,VALID,24.638,VALID,33,VALID,0.482812,
2010-09-11, 00:25:04,VALID,1005.08,VALID,0,INVALID,124.908,VALID,0,VALID,24.6769,VALID,40,VALID,0.329688,
2010-09-11, 00:26:04,VALID,1005.08,VALID,0,INVALID,124.793,VALID,0,VALID,24.6964,VALID,40,VALID,0.264453,
2010-09-11, 00:27:04,VALID,1005.11,VALID,0,INVALID,124.694,VALID,0,VALID,24.6964,VALID,73,VALID,0.450781,
2010-09-11, 00:28:04,VALID,1005.13,VALID,0,INVALID,124.603,VALID,0,VALID,24.6964,VALID,73,VALID,0.123047,
2010-09-11, 00:29:04,VALID,1005.09,VALID,0,INVALID,124.61,VALID,0,VALID,24.6983,VALID,73,VALID,0.107813,
2010-09-11, 00:30:04,VALID,1005.1,VALID,0,INVALID,124.618,VALID,0,VALID,24.6964,VALID,73,VALID,0.381641,
2010-09-11, 00:31:04,VALID,1005.08,VALID,0,INVALID,124.557,VALID,0,VALID,24.7353,VALID,73,VALID,0.281641,
2010-09-11, 00:32:04,VALID,1005.06,VALID,0,INVALID,124.526,VALID,0,VALID,24.714,VALID,73,VALID,0.267188,
2010-09-11, 00:33:04,VALID,1005.06,VALID,0,INVALID,124.587,VALID,0,VALID,24.7159,VALID,73,VALID,0.203516,
2010-09-11, 00:34:04,VALID,1005.04,VALID,0,INVALID,124.656,VALID,0,VALID,24.6964,VALID,73,VALID,0.254687,
2010-09-11, 00:35:04,VALID,1005.04,VALID,0,INVALID,124.671,VALID,0,VALID,24.714,VALID,67,VALID,0.138281,
2010-09-11, 00:36:04,VALID,1005.04,VALID,0,INVALID,124.755,VALID,0,VALID,24.6732,VALID,55,VALID,0.274219,
2010-09-11, 00:37:04,VALID,1005.04,VALID,0,INVALID,124.808,VALID,0.100563,VALID,24.714,VALID,18,VALID,0.208203,
2010-09-11, 00:38:04,VALID,1005.03,VALID,0,INVALID,124.831,VALID,0.100563,VALID,24.6945,VALID,287,VALID,0.378125,
2010-09-11, 00:39:04,VALID,1005.02,VALID,0,INVALID,124.847,VALID,0.100563,VALID,24.6732,VALID,287,VALID,0.0496094,
2010-09-11, 00:40:04,VALID,1005.03,VALID,0,INVALID,124.9,VALID,0.100563,VALID,24.6945,VALID,287,VALID,0,
2010-09-11, 00:41:04,VALID,1005.01,VALID,0,INVALID,124.915,VALID,0.100563,VALID,24.6732,VALID,287,VALID,0.0304688,
2010-09-11, 00:42:04,VALID,1005.02,VALID,0,INVALID,124.9,VALID,0,VALID,24.675,VALID,287,VALID,0,
2010-09-11, 00:43:04,VALID,1005,VALID,0,INVALID,124.862,VALID,0,VALID,24.6556,VALID,287,VALID,0,
2010-09-11, 00:44:04,VALID,1005.01,VALID,0,INVALID,124.786,VALID,0,VALID,24.6361,VALID,290,VALID,0,
2010-09-11, 00:45:04,VALID,1005.01,VALID,0,INVALID,124.793,VALID,0.100563,VALID,24.6166,VALID,290,VALID,0,
2010-09-11, 00:46:04,VALID,1004.98,VALID,0,INVALID,124.808,VALID,0.100563,VALID,24.5953,VALID,290,VALID,0,
2010-09-11, 00:47:04,VALID,1005,VALID,0,INVALID,124.854,VALID,0.100563,VALID,24.5972,VALID,290,VALID,0,
2010-09-11, 00:48:04,VALID,1005.01,VALID,0,INVALID,124.923,VALID,0.100563,VALID,24.5972,VALID,290,VALID,0,
2010-09-11, 00:49:04,VALID,1004.98,VALID,0,INVALID,125.014,VALID,0.201126,VALID,24.5369,VALID,290,VALID,0,
2010-09-11, 00:50:04,VALID,1004.96,VALID,0,INVALID,125.014,VALID,0,VALID,24.5212,VALID,290,VALID,0,
2010-09-11, 00:51:04,VALID,1004.95,VALID,0,INVALID,125.06,VALID,0,VALID,24.4804,VALID,351,VALID,0,
2010-09-11, 00:52:04,VALID,1004.94,VALID,0,INVALID,125.098,VALID,0,VALID,24.4609,VALID,351,VALID,0,
2010-09-11, 00:53:04,VALID,1004.93,VALID,0,INVALID,125.114,VALID,0,VALID,24.4414,VALID,351,VALID,0,
2010-09-11, 00:54:04,VALID,1004.93,VALID,0,INVALID,125.114,VALID,0,VALID,24.4628,VALID,351,VALID,0,
2010-09-11, 00:55:04,VALID,1004.93,VALID,0,INVALID,125.114,VALID,0,VALID,24.422,VALID,351,VALID,0,
2010-09-11, 00:56:04,VALID,1004.91,VALID,0,INVALID,125.121,VALID,0,VALID,24.4628,VALID,351,VALID,0,
2010-09-11, 00:57:04,VALID,1004.88,VALID,0,INVALID,125.114,VALID,0,VALID,24.4609,VALID,67,VALID,0.437891,
2010-09-11, 00:58:04,VALID,1004.85,VALID,0,INVALID,125.098,VALID,0,VALID,24.4998,VALID,67,VALID,0.280469,
2010-09-11, 00:59:04,VALID,1004.85,VALID,0,INVALID,125.137,VALID,0,VALID,24.5193,VALID,67,VALID,0.557031,
2010-09-11, 01:00:04,VALID,1004.81,VALID,0,INVALID,125.152,VALID,0,VALID,24.5388,VALID,66,VALID,0.422656,
2010-09-11, 01:01:04,VALID,1004.82,VALID,0,INVALID,125.167,VALID,0,VALID,24.5796,VALID,37,VALID,0.649609,
2010-09-11, 01:02:04,VALID,1004.8,VALID,0,INVALID,125.175,VALID,0,VALID,24.5972,VALID,39,VALID,0.483203,
2010-09-11, 01:03:04,VALID,1004.77,VALID,0,INVALID,125.213,VALID,0,VALID,24.6166,VALID,41,VALID,0.570703,
2010-09-11, 01:04:04,VALID,1004.77,VALID,0,INVALID,125.213,VALID,0,VALID,24.6361,VALID,40,VALID,0.717188,
2010-09-11, 01:05:04,VALID,1004.74,VALID,0,INVALID,125.205,VALID,0,VALID,24.6769,VALID,40,VALID,0.563281,
2010-09-11, 01:06:04,VALID,1004.75,VALID,0,INVALID,125.175,VALID,0,VALID,24.675,VALID,40,VALID,0.414453,
2010-09-11, 01:07:04,VALID,1004.74,VALID,0,INVALID,125.167,VALID,0,VALID,24.7159,VALID,40,VALID,0.351563,
2010-09-11, 01:08:04,VALID,1004.73,VALID,0,INVALID,125.144,VALID,0,VALID,24.7353,VALID,40,VALID,0.200781,
2010-09-11, 01:09:04,VALID,1004.72,VALID,0,INVALID,125.152,VALID,0,VALID,24.7335,VALID,40,VALID,0.342969,
2010-09-11, 01:10:04,VALID,1004.67,VALID,0,INVALID,125.114,VALID,0,VALID,24.7743,VALID,40,VALID,0.396875,
2010-09-11, 01:11:04,VALID,1004.67,VALID,0,INVALID,125.098,VALID,0,VALID,24.7724,VALID,40,VALID,0.526563,
2010-09-11, 01:12:04,VALID,1004.65,VALID,0,INVALID,125.068,VALID,0,VALID,24.8132,VALID,40,VALID,0.0792969,
2010-09-11, 01:13:04,VALID,1004.6,VALID,0,INVALID,125.03,VALID,0,VALID,24.7919,VALID,40,VALID,0.499219,
2010-09-11, 01:14:04,VALID,1004.59,VALID,0,INVALID,125.03,VALID,0,VALID,24.8113,VALID,40,VALID,0.363672,
2010-09-11, 01:15:04,VALID,1004.54,VALID,0,INVALID,124.931,VALID,0,VALID,24.8308,VALID,40,VALID,0.480859,
2010-09-11, 01:16:04,VALID,1004.51,VALID,0,INVALID,124.847,VALID,0,VALID,24.8503,VALID,40,VALID,0.368359,
2010-09-11, 01:17:04,VALID,1004.52,VALID,0,INVALID,124.763,VALID,0,VALID,24.8308,VALID,40,VALID,0.333594,
2010-09-11, 01:18:04,VALID,1004.52,VALID,0,INVALID,124.702,VALID,0,VALID,24.8911,VALID,41,VALID,0.475391,
2010-09-11, 01:19:04,VALID,1004.52,VALID,0,INVALID,124.603,VALID,0,VALID,24.8892,VALID,52,VALID,0.407031,
2010-09-11, 01:20:04,VALID,1004.52,VALID,0,INVALID,124.465,VALID,0,VALID,24.8716,VALID,52,VALID,0.265234,
2010-09-11, 01:21:04,VALID,1004.54,VALID,0,INVALID,124.351,VALID,0,VALID,24.8113,VALID,52,VALID,0.2625,
2010-09-11, 01:22:04,VALID,1004.54,VALID,0,INVALID,124.328,VALID,0,VALID,24.8113,VALID,80,VALID,0.159766,
2010-09-11, 01:23:04,VALID,1004.56,VALID,0,INVALID,124.374,VALID,0,VALID,24.8132,VALID,80,VALID,0.359766,
2010-09-11, 01:24:04,VALID,1004.54,VALID,0,INVALID,124.458,VALID,0,VALID,24.7937,VALID,46,VALID,0.640234,
2010-09-11, 01:25:04,VALID,1004.51,VALID,0,INVALID,124.488,VALID,0,VALID,24.7529,VALID,47,VALID,0.350781,
2010-09-11, 01:26:04,VALID,1004.54,VALID,0,INVALID,124.541,VALID,0,VALID,24.7548,VALID,47,VALID,0.327344,
2010-09-11, 01:27:04,VALID,1004.54,VALID,0,INVALID,124.641,VALID,0,VALID,24.7548,VALID,83,VALID,0.483984,
2010-09-11, 01:28:04,VALID,1004.49,VALID,0,INVALID,124.656,VALID,0,VALID,24.7548,VALID,73,VALID,0.44375,
2010-09-11, 01:29:04,VALID,1004.49,VALID,0,INVALID,124.587,VALID,0,VALID,24.7529,VALID,71,VALID,0.341406,
2010-09-11, 01:30:04,VALID,1004.47,VALID,0,INVALID,124.587,VALID,0,VALID,24.7335,VALID,55,VALID,0.492578,
2010-09-11, 01:31:04,VALID,1004.42,VALID,0,INVALID,124.61,VALID,0,VALID,24.7548,VALID,32,VALID,0.623828,
2010-09-11, 01:32:04,VALID,1004.39,VALID,0,INVALID,124.595,VALID,0,VALID,24.7335,VALID,30,VALID,0.388672,
2010-09-11, 01:33:04,VALID,1004.37,VALID,0,INVALID,124.686,VALID,0,VALID,24.7353,VALID,30,VALID,0.621875,
2010-09-11, 01:34:04,VALID,1004.32,VALID,0,INVALID,124.755,VALID,0,VALID,24.675,VALID,30,VALID,0.397266,
2010-09-11, 01:35:04,VALID,1004.32,VALID,0,INVALID,124.786,VALID,0,VALID,24.6964,VALID,30,VALID,0.691016,
2010-09-11, 01:36:04,VALID,1004.3,VALID,0,INVALID,124.831,VALID,0,VALID,24.6361,VALID,32,VALID,0.398047,
2010-09-11, 01:37:04,VALID,1004.3,VALID,0,INVALID,124.885,VALID,0,VALID,24.6574,VALID,37,VALID,0.276172,
2010-09-11, 01:38:04,VALID,1004.28,VALID,0,INVALID,124.885,VALID,0,VALID,24.6166,VALID,37,VALID,0.190234,
2010-09-11, 01:39:04,VALID,1004.3,VALID,0,INVALID,124.931,VALID,0,VALID,24.6185,VALID,37,VALID,0.213281,
2010-09-11, 01:40:04,VALID,1004.29,VALID,0,INVALID,124.938,VALID,0,VALID,24.599,VALID,37,VALID,0.287109,
2010-09-11, 01:41:04,VALID,1004.24,VALID,0,INVALID,124.946,VALID,0,VALID,24.5796,VALID,66,VALID,0.345313,
2010-09-11, 01:42:04,VALID,1004.24,VALID,0,INVALID,125.014,VALID,0,VALID,24.599,VALID,79,VALID,0.430469,
2010-09-11, 01:43:04,VALID,1004.21,VALID,0,INVALID,125.007,VALID,0,VALID,24.5796,VALID,35,VALID,0.629297,
2010-09-11, 01:44:04,VALID,1004.16,VALID,0,INVALID,125.007,VALID,0,VALID,24.5601,VALID,30,VALID,0.391406,
2010-09-11, 01:45:04,VALID,1004.12,VALID,0,INVALID,125.022,VALID,0,VALID,24.5388,VALID,32,VALID,0.537109,
2010-09-11, 01:46:04,VALID,1004.11,VALID,0,INVALID,125.037,VALID,0,VALID,24.6185,VALID,32,VALID,0.404687,
2010-09-11, 01:47:04,VALID,1004.06,VALID,0,INVALID,125.03,VALID,0,VALID,24.6185,VALID,32,VALID,0.464453,
2010-09-11, 01:48:04,VALID,1004.06,VALID,0,INVALID,124.961,VALID,0,VALID,24.599,VALID,31,VALID,0.592578,
2010-09-11, 01:49:04,VALID,1004.05,VALID,0,INVALID,124.992,VALID,0,VALID,24.6204,VALID,31,VALID,0.473047,
2010-09-11, 01:50:04,VALID,1004.05,VALID,0,INVALID,124.992,VALID,0,VALID,24.5796,VALID,32,VALID,0.514453,
2010-09-11, 01:51:04,VALID,1004.08,VALID,0,INVALID,125.007,VALID,0,VALID,24.6166,VALID,35,VALID,0.309375,
2010-09-11, 01:52:04,VALID,1004.09,VALID,0,INVALID,125.007,VALID,0.100563,VALID,24.5777,VALID,35,VALID,0.492578,
2010-09-11, 01:53:04,VALID,1004.07,VALID,0,INVALID,125.03,VALID,0,VALID,24.5777,VALID,35,VALID,0.329688,
2010-09-11, 01:54:04,VALID,1004.06,VALID,0,INVALID,125.037,VALID,0.100563,VALID,24.5777,VALID,35,VALID,0.504297,
2010-09-11, 01:55:04,VALID,1004.03,VALID,0,INVALID,125.075,VALID,0,VALID,24.5369,VALID,35,VALID,0.222656,
2010-09-11, 01:56:04,VALID,1004.06,VALID,0,INVALID,125.083,VALID,0.100563,VALID,24.5193,VALID,35,VALID,0.436719,
2010-09-11, 01:57:04,VALID,1004.05,VALID,0,INVALID,125.121,VALID,0,VALID,24.5193,VALID,35,VALID,0.421484,
2010-09-11, 01:58:04,VALID,1004.05,VALID,0,INVALID,125.152,VALID,0.100563,VALID,24.5193,VALID,35,VALID,0.446484,
2010-09-11, 01:59:04,VALID,1004.06,VALID,0,INVALID,125.159,VALID,0,VALID,24.5193,VALID,35,VALID,0.25625,
2010-09-11, 02:00:04,VALID,1004.05,VALID,0,INVALID,125.167,VALID,0.100563,VALID,24.4998,VALID,35,VALID,0.337891,
2010-09-11, 02:01:04,VALID,1004.08,VALID,0,INVALID,125.19,VALID,0,VALID,24.498,VALID,35,VALID,0.457812,
2010-09-11, 02:02:04,VALID,1004.04,VALID,0,INVALID,125.213,VALID,0.100563,VALID,24.5193,VALID,35,VALID,0.218359,
2010-09-11, 02:03:04,VALID,1004.04,VALID,0,INVALID,125.22,VALID,0,VALID,24.5193,VALID,38,VALID,0.391797,
2010-09-11, 02:04:04,VALID,1004.01,VALID,0,INVALID,125.228,VALID,0.100563,VALID,24.5174,VALID,38,VALID,0.164063,
2010-09-11, 02:05:04,VALID,1003.99,VALID,0,INVALID,125.236,VALID,0,VALID,24.5193,VALID,38,VALID,0.168359,
2010-09-11, 02:06:04,VALID,1003.99,VALID,0,INVALID,125.251,VALID,0,VALID,24.5212,VALID,38,VALID,0.272656,
2010-09-11, 02:07:04,VALID,1003.99,VALID,0,INVALID,125.228,VALID,0,VALID,24.5017,VALID,38,VALID,0.0703125,
2010-09-11, 02:08:04,VALID,1003.97,VALID,0,INVALID,125.236,VALID,0,VALID,24.4822,VALID,38,VALID,0.348047,
2010-09-11, 02:09:04,VALID,1003.97,VALID,0,INVALID,125.22,VALID,0,VALID,24.4822,VALID,38,VALID,0.160156,
2010-09-11, 02:10:04,VALID,1003.99,VALID,0,INVALID,125.22,VALID,0,VALID,24.4804,VALID,38,VALID,0.229687,
2010-09-11, 02:11:04,VALID,1003.97,VALID,0,INVALID,125.205,VALID,0,VALID,24.5017,VALID,21,VALID,0.391406,
2010-09-11, 02:12:04,VALID,1004,VALID,0,INVALID,125.228,VALID,0,VALID,24.5017,VALID,21,VALID,0.234375,
2010-09-11, 02:13:04,VALID,1003.99,VALID,0,INVALID,125.205,VALID,0,VALID,24.5017,VALID,21,VALID,0.310156,
2010-09-11, 02:14:04,VALID,1004,VALID,0,INVALID,125.167,VALID,0,VALID,24.4804,VALID,17,VALID,0.375781,
2010-09-11, 02:15:04,VALID,1003.99,VALID,0,INVALID,125.144,VALID,0,VALID,24.5017,VALID,17,VALID,0.323438,
2010-09-11, 02:16:04,VALID,1003.99,VALID,0,INVALID,125.114,VALID,0,VALID,24.4804,VALID,17,VALID,0.479688,
2010-09-11, 02:17:04,VALID,1003.95,VALID,0,INVALID,125.091,VALID,0,VALID,24.4804,VALID,17,VALID,0.342578,
2010-09-11, 02:18:04,VALID,1003.94,VALID,0,INVALID,125.083,VALID,0,VALID,24.5017,VALID,17,VALID,0.386719,
2010-09-11, 02:19:04,VALID,1003.92,VALID,0,INVALID,125.083,VALID,0,VALID,24.4609,VALID,17,VALID,0.3875,
2010-09-11, 02:20:04,VALID,1003.92,VALID,0,INVALID,125.045,VALID,0,VALID,24.4628,VALID,16,VALID,0.534766,
2010-09-11, 02:21:04,VALID,1003.93,VALID,0,INVALID,125.045,VALID,0,VALID,24.4238,VALID,9,VALID,0.596484,
2010-09-11, 02:22:04,VALID,1003.95,VALID,0,INVALID,124.961,VALID,0,VALID,24.4043,VALID,9,VALID,0.473437,
2010-09-11, 02:23:04,VALID,1003.96,VALID,0,INVALID,124.839,VALID,0,VALID,24.3849,VALID,2,VALID,0.580078,
2010-09-11, 02:24:04,VALID,1003.92,VALID,0,INVALID,124.717,VALID,0,VALID,24.4238,VALID,34,VALID,0.646875,
2010-09-11, 02:25:04,VALID,1003.93,VALID,0,INVALID,124.717,VALID,0,VALID,24.4238,VALID,28,VALID,0.853125,
2010-09-11, 02:26:04,VALID,1003.9,VALID,0,INVALID,124.633,VALID,0,VALID,24.4628,VALID,14,VALID,0.571094,
2010-09-11, 02:27:04,VALID,1003.87,VALID,0,INVALID,124.641,VALID,0,VALID,24.4822,VALID,2,VALID,0.743359,
2010-09-11, 02:28:04,VALID,1003.85,VALID,0,INVALID,124.595,VALID,0,VALID,24.5406,VALID,7,VALID,0.614844,
2010-09-11, 02:29:04,VALID,1003.83,VALID,0,INVALID,124.694,VALID,0,VALID,24.6204,VALID,3,VALID,1.01133,
2010-09-11, 02:30:04,VALID,1003.8,VALID,0,INVALID,124.87,VALID,0,VALID,24.6964,VALID,15,VALID,0.551562,
2010-09-11, 02:31:04,VALID,1003.8,VALID,0,INVALID,125.19,VALID,0,VALID,24.7743,VALID,3,VALID,0.792969,
2010-09-11, 02:32:04,VALID,1003.79,VALID,0,INVALID,125.365,VALID,0,VALID,24.8522,VALID,3,VALID,0.623828,
2010-09-11, 02:33:04,VALID,1003.8,VALID,0,INVALID,125.419,VALID,0,VALID,24.9319,VALID,15,VALID,0.523828,
2010-09-11, 02:34:04,VALID,1003.79,VALID,0,INVALID,125.281,VALID,0,VALID,24.9495,VALID,20,VALID,0.863281,
2010-09-11, 02:35:04,VALID,1003.79,VALID,0,INVALID,125.159,VALID,0,VALID,25.0274,VALID,44,VALID,0.731641,
2010-09-11, 02:36:04,VALID,1003.76,VALID,0,INVALID,125.022,VALID,0,VALID,25.1053,VALID,7,VALID,1.14258,
2010-09-11, 02:37:04,VALID,1003.71,VALID,0,INVALID,124.679,VALID,0,VALID,25.1813,VALID,28,VALID,0.78125,
2010-09-11, 02:38:04,VALID,1003.74,VALID,0,INVALID,122.711,VALID,0,VALID,25.3,VALID,23,VALID,0.664453,
2010-09-11, 02:39:04,VALID,1003.68,VALID,0,INVALID,111.481,VALID,0,VALID,25.2981,VALID,23,VALID,0.601563,
2010-09-11, 02:40:04,VALID,1003.63,VALID,0,VALID,104,VALID,0,VALID,25.3195,VALID,23,VALID,0.732422,
2010-09-11, 02:41:04,VALID,1003.64,VALID,0,VALID,104,VALID,0,VALID,25.3195,VALID,23,VALID,0.648438,
2010-09-11, 02:42:04,VALID,1003.64,VALID,0,VALID,104,VALID,0,VALID,25.3214,VALID,23,VALID,0.623438,
2010-09-11, 02:43:04,VALID,1003.63,VALID,0,VALID,104,VALID,0,VALID,25.3,VALID,23,VALID,0.510547,
2010-09-11, 02:44:04,VALID,1003.65,VALID,0,VALID,102.166,VALID,0,VALID,25.339,VALID,29,VALID,0.550781,
2010-09-11, 02:45:04,VALID,1003.65,VALID,0,VALID,99.473,VALID,0,VALID,25.3584,VALID,29,VALID,0.327344,
2010-09-11, 02:46:04,VALID,1003.64,VALID,0,VALID,98.4812,VALID,0,VALID,25.3176,VALID,29,VALID,0.698047,
2010-09-11, 02:47:04,VALID,1003.62,VALID,0,VALID,97.4132,VALID,0,VALID,25.3993,VALID,13,VALID,0.663672,
2010-09-11, 02:48:04,VALID,1003.61,VALID,0,VALID,94.8194,VALID,0,VALID,25.3974,VALID,43,VALID,0.482422,
2010-09-11, 02:49:04,VALID,1003.6,VALID,0,VALID,93.9878,VALID,0,VALID,25.3584,VALID,43,VALID,0.201172,
2010-09-11, 02:50:04,VALID,1003.6,VALID,0,VALID,94.4227,VALID,0,VALID,25.3195,VALID,43,VALID,0.370703,
2010-09-11, 02:51:04,VALID,1003.63,VALID,0,VALID,95.7119,VALID,0,VALID,25.2416,VALID,43,VALID,0.334766,
2010-09-11, 02:52:04,VALID,1003.64,VALID,0,VALID,97.909,VALID,0,VALID,25.1599,VALID,43,VALID,0.374219,
2010-09-11, 02:53:04,VALID,1003.66,VALID,0,VALID,103.982,VALID,0,VALID,25.1423,VALID,43,VALID,0.426562,
2010-09-11, 02:54:04,VALID,1003.66,VALID,0,VALID,104,VALID,0.100563,VALID,25.1442,VALID,43,VALID,0.151172,
2010-09-11, 02:55:04,VALID,1003.63,VALID,0,INVALID,112.976,VALID,0.100563,VALID,25.0644,VALID,43,VALID,0.059375,
2010-09-11, 02:56:04,VALID,1003.63,VALID,0,INVALID,115.776,VALID,0,VALID,25.0274,VALID,43,VALID,0,
2010-09-11, 02:57:04,VALID,1003.61,VALID,0,INVALID,119.323,VALID,0,VALID,24.9671,VALID,43,VALID,0,
2010-09-11, 02:58:04,VALID,1003.59,VALID,0,INVALID,121.421,VALID,0,VALID,24.8892,VALID,43,VALID,0,
2010-09-11, 02:59:04,VALID,1003.62,VALID,0,INVALID,122.772,VALID,0,VALID,24.8503,VALID,43,VALID,0,
2010-09-11, 03:00:04,VALID,1003.59,VALID,0,INVALID,123.718,VALID,0,VALID,24.8308,VALID,43,VALID,0,
2010-09-11, 03:01:04,VALID,1003.6,VALID,0,INVALID,124.13,VALID,0,VALID,24.7919,VALID,43,VALID,0,
2010-09-11, 03:02:04,VALID,1003.52,VALID,0,INVALID,124.404,VALID,0,VALID,24.7724,VALID,43,VALID,0,
2010-09-11, 03:03:04,VALID,1003.51,VALID,0,INVALID,124.564,VALID,0,VALID,24.7529,VALID,43,VALID,0,
2010-09-11, 03:04:04,VALID,1003.47,VALID,0,INVALID,124.648,VALID,0,VALID,24.714,VALID,40,VALID,0,
2010-09-11, 03:05:04,VALID,1003.47,VALID,0,INVALID,124.664,VALID,0,VALID,24.6556,VALID,35,VALID,0,
2010-09-11, 03:06:04,VALID,1003.46,VALID,0,INVALID,124.732,VALID,0,VALID,24.5972,VALID,33,VALID,0,
2010-09-11, 03:07:04,VALID,1003.48,VALID,0,INVALID,124.854,VALID,0,VALID,24.5388,VALID,33,VALID,0,
2010-09-11, 03:08:04,VALID,1003.5,VALID,0,INVALID,124.885,VALID,0,VALID,24.5017,VALID,33,VALID,0,
2010-09-11, 03:09:04,VALID,1003.54,VALID,0,INVALID,124.946,VALID,0,VALID,24.4451,VALID,33,VALID,0,
2010-09-11, 03:10:04,VALID,1003.54,VALID,0,INVALID,124.999,VALID,0,VALID,24.3849,VALID,33,VALID,0,
2010-09-11, 03:11:04,VALID,1003.57,VALID,0,INVALID,125.06,VALID,0,VALID,24.3459,VALID,33,VALID,0,
2010-09-11, 03:12:04,VALID,1003.58,VALID,0,INVALID,125.091,VALID,0,VALID,24.3052,VALID,25,VALID,0,
2010-09-11, 03:13:04,VALID,1003.56,VALID,0,INVALID,125.106,VALID,0,VALID,24.2875,VALID,21,VALID,0,
2010-09-11, 03:14:04,VALID,1003.58,VALID,0,INVALID,125.098,VALID,0,VALID,24.2894,VALID,20,VALID,0,
2010-09-11, 03:15:04,VALID,1003.58,VALID,0,INVALID,125.129,VALID,0,VALID,24.2504,VALID,20,VALID,0,
2010-09-11, 03:16:04,VALID,1003.57,VALID,0,INVALID,125.053,VALID,0,VALID,24.2291,VALID,13,VALID,0,
2010-09-11, 03:17:04,VALID,1003.56,VALID,0,INVALID,124.999,VALID,0,VALID,24.2291,VALID,11,VALID,0,
2010-09-11, 03:18:04,VALID,1003.53,VALID,0,INVALID,125.014,VALID,0,VALID,24.2699,VALID,11,VALID,0,
2010-09-11, 03:19:04,VALID,1003.54,VALID,0,INVALID,124.992,VALID,0,VALID,24.2078,VALID,11,VALID,0,
2010-09-11, 03:20:04,VALID,1003.5,VALID,0,INVALID,124.999,VALID,0,VALID,24.2078,VALID,11,VALID,0,
2010-09-11, 03:21:04,VALID,1003.49,VALID,0,INVALID,124.969,VALID,0,VALID,24.1884,VALID,11,VALID,0,
2010-09-11, 03:22:04,VALID,1003.46,VALID,0,INVALID,124.969,VALID,0,VALID,24.231,VALID,11,VALID,0,
2010-09-11, 03:23:04,VALID,1003.49,VALID,0,INVALID,124.931,VALID,0,VALID,24.2078,VALID,11,VALID,0,
2010-09-11, 03:24:04,VALID,1003.49,VALID,0,INVALID,124.831,VALID,0,VALID,24.1884,VALID,11,VALID,0,
2010-09-11, 03:25:04,VALID,1003.51,VALID,0,INVALID,124.793,VALID,0,VALID,24.2097,VALID,11,VALID,0,
2010-09-11, 03:26:04,VALID,1003.48,VALID,0,INVALID,124.763,VALID,0,VALID,24.1902,VALID,11,VALID,0,
2010-09-11, 03:27:04,VALID,1003.47,VALID,0,INVALID,124.694,VALID,0,VALID,24.1902,VALID,11,VALID,0,
2010-09-11, 03:28:04,VALID,1003.52,VALID,0,INVALID,124.656,VALID,0,VALID,24.2097,VALID,11,VALID,0,
2010-09-11, 03:29:04,VALID,1003.53,VALID,0,INVALID,124.595,VALID,0,VALID,24.1689,VALID,11,VALID,0,
2010-09-11, 03:30:04,VALID,1003.53,VALID,0,INVALID,124.549,VALID,0,VALID,24.2097,VALID,11,VALID,0,
2010-09-11, 03:31:04,VALID,1003.56,VALID,0,INVALID,124.541,VALID,0,VALID,24.1902,VALID,11,VALID,0,
2010-09-11, 03:32:04,VALID,1003.57,VALID,0,INVALID,124.473,VALID,0,VALID,24.2097,VALID,11,VALID,0,
2010-09-11, 03:33:04,VALID,1003.57,VALID,0,INVALID,124.412,VALID,0,VALID,24.2097,VALID,11,VALID,0,
2010-09-11, 03:34:04,VALID,1003.6,VALID,0,INVALID,124.389,VALID,0,VALID,24.1902,VALID,11,VALID,0,
2010-09-11, 03:35:04,VALID,1003.6,VALID,0,INVALID,124.397,VALID,0,VALID,24.2097,VALID,11,VALID,0,
2010-09-11, 03:36:04,VALID,1003.61,VALID,0,INVALID,124.397,VALID,0,VALID,24.2097,VALID,11,VALID,0,
2010-09-11, 03:37:04,VALID,1003.6,VALID,0,INVALID,124.328,VALID,0,VALID,24.2291,VALID,11,VALID,0,
2010-09-11, 03:38:04,VALID,1003.62,VALID,0,INVALID,124.282,VALID,0,VALID,24.2291,VALID,11,VALID,0,
2010-09-11, 03:39:04,VALID,1003.63,VALID,0,INVALID,124.282,VALID,0,VALID,24.2486,VALID,11,VALID,0,
2010-09-11, 03:40:04,VALID,1003.65,VALID,0,INVALID,124.114,VALID,0,VALID,24.2662,VALID,11,VALID,0,
2010-09-11, 03:41:04,VALID,1003.67,VALID,0,INVALID,124.099,VALID,0,VALID,24.3088,VALID,11,VALID,0,
2010-09-11, 03:42:04,VALID,1003.67,VALID,0,INVALID,124.114,VALID,0,VALID,24.2681,VALID,11,VALID,0,
2010-09-11, 03:43:04,VALID,1003.66,VALID,0,INVALID,124.091,VALID,0,VALID,24.2875,VALID,11,VALID,0,
2010-09-11, 03:44:04,VALID,1003.62,VALID,0,INVALID,124.038,VALID,0,VALID,24.2875,VALID,11,VALID,0,
2010-09-11, 03:45:04,VALID,1003.62,VALID,0,INVALID,124.076,VALID,0,VALID,24.2681,VALID,11,VALID,0,